This is the latest recevied weather packets stored in our database for station/object KI6SYE. If no packets are shown the sender has not sent any weather packets the latest 10 day(s).
| Time | Temp. | Humidity | Pressure | Rain* | Wind** | Luminosity | Snow |
|---|---|---|---|---|---|---|---|
| 1777998548 | 16.11° C | 78% | 1014.4 hPa | 0 mm | - | 554 W/m² | - |
| 1777998243 | 15.56° C | 79% | 1014.3 hPa | 0 mm | - | 526 W/m² | - |
| 1777997940 | 15.56° C | 80% | 1014.1 hPa | 0 mm | - | 510 W/m² | - |
| 1777997637 | 15.56° C | 79% | 1014.1 hPa | 0 mm | - | 490 W/m² | - |
| 1777997334 | 15.56° C | 80% | 1014.1 hPa | 0 mm | - | 472 W/m² | - |
| 1777997033 | 15.56° C | 80% | 1014.1 hPa | 0 mm | - | 456 W/m² | - |
| 1777996729 | 15.56° C | 80% | 1014.2 hPa | 0 mm | - | 447 W/m² | - |
| 1777996425 | 15.56° C | 79% | 1013.9 hPa | 0 mm | - | 424 W/m² | - |
| 1777996122 | 16.11° C | 77% | 1014 hPa | 0 mm | - | 407 W/m² | - |
| 1777995818 | 15.56° C | 77% | 1014.1 hPa | 0 mm | - | 392 W/m² | - |
| 1777995515 | 15° C | 78% | 1014.1 hPa | 0 mm | - | 373 W/m² | - |
| 1777995212 | 15° C | 80% | 1014.2 hPa | 0 mm | - | 357 W/m² | - |
| 1777994909 | 15° C | 81% | 1014 hPa | 0 mm | - | 339 W/m² | - |
| 1777994606 | 15° C | 81% | 1014 hPa | 0 mm | - | 322 W/m² | - |
| 1777994306 | 15° C | 82% | 1014.1 hPa | 0 mm | - | 306 W/m² | - |
| 1777994003 | 15° C | 83% | 1013.9 hPa | 0 mm | - | 286 W/m² | - |
| 1777993700 | 15° C | 82% | 1014.1 hPa | 0 mm | - | 272 W/m² | - |
| 1777993397 | 15° C | 82% | 1014 hPa | 0 mm | - | 251 W/m² | - |
| 1777993091 | 15° C | 83% | 1013.9 hPa | 0 mm | - | 234 W/m² | - |
| 1777992790 | 15° C | 83% | 1014 hPa | 0 mm | - | 218 W/m² | - |
| 1777992487 | 15° C | 84% | 1013.9 hPa | 0 mm | - | 191 W/m² | - |
| 1777992185 | 15° C | 84% | 1013.8 hPa | 0 mm | - | 187 W/m² | - |
| 1777991881 | 14.44° C | 85% | 1013.8 hPa | 0 mm | - | 164 W/m² | - |
| 1777991579 | 14.44° C | 85% | 1013.7 hPa | 0 mm | - | 98 W/m² | - |
| 1777991276 | 14.44° C | 85% | 1013.7 hPa | 0 mm | - | 118 W/m² | - |
* Rain latest hour (hover to see other rain measurements)
** Current wind speed in m/s (hover to see current wind gust speed)